TimeCDT,TemperatureF,Dew PointF,Humidity,Sea Level PressureIn,VisibilityMPH,Wind Direction,Wind SpeedMPH,Gust SpeedMPH,PrecipitationIn,Events,Conditions,WindDirDegrees,DateUTC
12:15 AM,63.7,46.2,53,30.05,10.0,SE,6.9,-,N/A,,Clear,140,2013-09-28 05:15:00
12:35 AM,63.7,45.7,52,30.04,10.0,SSE,8.1,-,N/A,,Clear,150,2013-09-28 05:35:00
12:55 AM,62.6,45.5,54,30.03,10.0,SSE,8.1,-,N/A,,Clear,150,2013-09-28 05:55:00
1:15 AM,62.8,45.5,53,30.03,10.0,SSE,6.9,-,N/A,,Clear,150,2013-09-28 06:15:00
1:35 AM,62.8,45.7,54,30.04,10.0,SSE,6.9,-,N/A,,Clear,150,2013-09-28 06:35:00
1:55 AM,62.2,46.0,55,30.03,10.0,SSE,5.8,-,N/A,,Clear,160,2013-09-28 06:55:00
2:15 AM,62.1,46.4,56,30.03,10.0,SSE,6.9,-,N/A,,Clear,150,2013-09-28 07:15:00
2:35 AM,61.5,46.4,58,30.02,10.0,SE,5.8,-,N/A,,Clear,140,2013-09-28 07:35:00
2:55 AM,60.8,46.6,59,30.02,10.0,SSE,5.8,-,N/A,,Clear,150,2013-09-28 07:55:00
3:15 AM,60.3,46.6,61,30.02,10.0,SE,5.8,-,N/A,,Clear,140,2013-09-28 08:15:00
3:35 AM,60.1,46.8,61,30.01,10.0,SE,6.9,-,N/A,,Clear,140,2013-09-28 08:35:00
3:55 AM,59.0,46.6,63,30.01,10.0,SE,4.6,-,N/A,,Clear,140,2013-09-28 08:55:00
4:15 AM,59.4,46.8,63,30.01,10.0,SSE,5.8,-,N/A,,Clear,150,2013-09-28 09:15:00
4:35 AM,56.5,46.8,70,30.01,10.0,SSE,4.6,-,N/A,,Clear,150,2013-09-28 09:35:00
4:55 AM,57.4,46.9,68,30.02,10.0,ESE,3.5,-,N/A,,Clear,120,2013-09-28 09:55:00
5:15 AM,54.5,47.5,77,30.02,10.0,Calm,Calm,-,N/A,,Clear,0,2013-09-28 10:15:00
5:35 AM,54.9,47.8,77,30.02,10.0,Calm,Calm,-,N/A,,Clear,0,2013-09-28 10:35:00
5:55 AM,55.8,47.8,75,30.02,10.0,SE,3.5,-,N/A,,Clear,130,2013-09-28 10:55:00
6:15 AM,56.3,47.5,72,30.03,10.0,SSE,4.6,-,N/A,,Clear,150,2013-09-28 11:15:00
6:35 AM,54.5,48.0,79,30.02,10.0,SE,5.8,-,N/A,,Clear,140,2013-09-28 11:35:00
6:55 AM,58.5,49.1,71,30.02,10.0,SSE,6.9,-,N/A,,Clear,150,2013-09-28 11:55:00
7:15 AM,59.4,49.5,70,30.02,10.0,SSE,5.8,-,N/A,,Clear,150,2013-09-28 12:15:00
7:55 AM,62.4,50.7,66,30.01,10.0,SSE,6.9,-,N/A,,Clear,150,2013-09-28 12:55:00
8:15 AM,63.7,51.4,64,30.01,10.0,SSE,6.9,-,N/A,,Scattered Clouds,150,2013-09-28 13:15:00
8:35 AM,66.2,51.8,60,30.01,10.0,South,9.2,-,N/A,,Mostly Cloudy,180,2013-09-28 13:35:00
8:55 AM,66.7,51.6,58,30.00,10.0,South,11.5,17.3,N/A,,Overcast,170,2013-09-28 13:55:00
9:15 AM,68.0,51.8,56,29.99,10.0,South,13.8,18.4,N/A,,Scattered Clouds,180,2013-09-28 14:15:00
9:35 AM,69.4,52.0,54,29.99,10.0,South,16.1,23.0,N/A,,Clear,180,2013-09-28 14:35:00
9:55 AM,70.7,51.1,50,29.98,10.0,South,15.0,23.0,N/A,,Clear,190,2013-09-28 14:55:00
10:15 AM,72.1,50.4,46,29.98,10.0,South,10.4,19.6,N/A,,Scattered Clouds,180,2013-09-28 15:15:00
10:35 AM,71.8,50.4,47,29.97,10.0,South,12.7,19.6,N/A,,Clear,170,2013-09-28 15:35:00
10:55 AM,73.4,50.7,45,29.95,10.0,South,15.0,19.6,N/A,,Clear,170,2013-09-28 15:55:00
11:15 AM,73.0,52.3,48,29.95,10.0,SSE,16.1,24.2,N/A,,Clear,160,2013-09-28 16:15:00
11:35 AM,75.2,53.6,47,29.93,10.0,SSE,15.0,19.6,N/A,,Clear,160,2013-09-28 16:35:00
11:55 AM,77.2,54.7,46,29.92,10.0,SSE,12.7,20.7,N/A,,Clear,160,2013-09-28 16:55:00
12:15 PM,79.3,55.2,43,29.90,10.0,South,20.7,24.2,N/A,,Clear,170,2013-09-28 17:15:00
12:35 PM,78.4,55.4,45,29.90,10.0,South,18.4,24.2,N/A,,Clear,180,2013-09-28 17:35:00
12:55 PM,80.1,55.2,42,29.89,10.0,South,20.7,28.8,N/A,,Scattered Clouds,180,2013-09-28 17:55:00
1:15 PM,80.6,54.9,41,29.87,10.0,South,21.9,27.6,N/A,,Scattered Clouds,180,2013-09-28 18:15:00
1:35 PM,81.5,55.6,41,29.87,10.0,South,19.6,26.5,N/A,,Mostly Cloudy,180,2013-09-28 18:35:00
1:55 PM,80.8,56.3,43,29.85,10.0,South,20.7,27.6,N/A,,Overcast,180,2013-09-28 18:55:00
2:15 PM,81.9,56.3,41,29.85,10.0,South,15.0,28.8,N/A,,Scattered Clouds,190,2013-09-28 19:15:00
2:35 PM,80.6,56.1,43,29.85,10.0,South,18.4,32.2,N/A,,Mostly Cloudy,190,2013-09-28 19:35:00
2:55 PM,79.7,56.3,44,29.84,10.0,South,23.0,27.6,N/A,,Overcast,190,2013-09-28 19:55:00
3:15 PM,79.7,56.3,44,29.84,10.0,SSW,19.6,29.9,N/A,,Overcast,200,2013-09-28 20:15:00
3:35 PM,79.2,55.9,45,29.83,10.0,South,21.9,28.8,N/A,,Overcast,190,2013-09-28 20:35:00
3:55 PM,77.5,57.4,50,29.84,10.0,South,12.7,23.0,N/A,,Overcast,190,2013-09-28 20:55:00
4:15 PM,76.3,58.8,55,29.84,10.0,SSW,17.3,27.6,N/A,,Overcast,210,2013-09-28 21:15:00
4:35 PM,74.3,60.6,62,29.84,10.0,SSW,16.1,19.6,N/A,,Overcast,210,2013-09-28 21:35:00
4:55 PM,72.1,62.8,72,29.85,10.0,SW,9.2,19.6,N/A,,Overcast,220,2013-09-28 21:55:00
5:15 PM,70.7,63.7,78,29.86,10.0,SW,12.7,18.4,N/A,,Overcast,220,2013-09-28 22:15:00
5:35 PM,69.6,66.0,88,29.87,2.5,SSW,13.8,19.6,0.01,,Overcast,210,2013-09-28 22:35:00
5:55 PM,68.9,66.4,92,29.86,3.0,SSW,15.0,19.6,0.03,,Overcast,210,2013-09-28 22:55:00
6:15 PM,69.1,66.7,92,29.86,4.0,SSW,11.5,-,0.01,,Overcast,210,2013-09-28 23:15:00
6:35 PM,68.9,66.7,93,29.86,3.0,SSW,12.7,-,0.03,,Overcast,210,2013-09-28 23:35:00
6:55 PM,67.5,64.8,91,29.88,5.0,West,15.0,24.2,0.05,,Overcast,270,2013-09-28 23:55:00
7:15 PM,62.6,60.3,92,29.89,5.0,WNW,10.4,23.0,0.02,,Overcast,290,2013-09-29 00:15:00
7:35 PM,62.1,59.7,92,29.90,10.0,WNW,12.7,17.3,0.02,,Overcast,290,2013-09-29 00:35:00
7:55 PM,61.3,59.2,93,29.91,10.0,WNW,12.7,19.6,0.02,,Overcast,290,2013-09-29 00:55:00
8:15 PM,60.4,58.1,92,29.91,7.0,WNW,10.4,17.3,N/A,,Overcast,290,2013-09-29 01:15:00
8:35 PM,59.9,57.9,93,29.93,5.0,WNW,10.4,-,0.05,,Overcast,300,2013-09-29 01:35:00
8:55 PM,59.2,57.6,94,29.93,10.0,NW,18.4,23.0,0.06,,Overcast,310,2013-09-29 01:55:00
9:15 PM,58.3,54.1,86,29.94,10.0,NW,6.9,-,N/A,,Overcast,320,2013-09-29 02:15:00
9:35 PM,57.7,53.4,85,29.96,10.0,WNW,5.8,-,N/A,,Overcast,300,2013-09-29 02:35:00
9:55 PM,57.0,53.6,88,29.96,10.0,WNW,6.9,-,N/A,,Overcast,300,2013-09-29 02:55:00
10:15 PM,57.2,54.0,89,29.97,10.0,WNW,6.9,-,N/A,,Overcast,300,2013-09-29 03:15:00
10:35 PM,56.8,54.5,92,29.97,10.0,WNW,5.8,-,N/A,,Overcast,290,2013-09-29 03:35:00
10:55 PM,55.9,54.0,93,29.98,10.0,West,4.6,-,N/A,,Mostly Cloudy,280,2013-09-29 03:55:00
11:15 PM,54.9,53.2,94,29.99,10.0,WNW,5.8,-,N/A,,Scattered Clouds,290,2013-09-29 04:15:00
11:35 PM,54.5,53.1,95,29.99,10.0,West,4.6,-,N/A,,Scattered Clouds,280,2013-09-29 04:35:00
11:55 PM,54.5,52.9,94,29.99,10.0,West,5.8,-,N/A,,Mostly Cloudy,280,2013-09-29 04:55:00